Probability
40 39 37 32 27 24 25 30 33 31 27 23 21 20 18 13 11 17 25 31 34 33 30 24 16 7 2 1 1 1 1 1 0 0 0 0 0 0 0 0 0 0 0
38 36 35 33 29 26 27 32 36 35 31 27 25 25 23 18 16 21 27 30 31 33 34 31 24 15 8 3 2 2 3 3 2 1 0 0 0 0 0 0 0 0 0
30 30 30 30 28 26 27 33 38 37 32 28 27 27 27 25 24 26 31 32 30 30 35 39 37 30 20 11 6 5 7 8 6 4 2 1 0 0 0 0 0 0 0
18 20 22 23 22 21 21 28 35 36 32 27 25 25 27 31 32 30 29 31 32 33 35 39 43 42 34 24 16 14 14 13 12 10 7 4 1 0 0 0 0 0 0
9 11 14 17 17 15 16 22 29 31 27 22 19 18 23 30 35 32 28 28 32 37 37 36 40 42 39 36 31 29 26 23 20 18 14 9 4 1 0 0 0 0 0
6 6 9 13 15 14 15 18 21 20 17 14 11 12 16 21 27 30 28 27 30 35 36 37 41 41 38 40 43 44 39 33 31 28 23 17 11 5 2 0 0 0 0
5 5 5 9 11 12 12 12 11 10 10 10 9 9 10 13 18 24 26 26 28 32 35 38 44 45 39 36 41 48 49 44 41 38 32 26 21 14 6 1 0 0 0
4 4 5 6 7 7 6 5 5 6 7 8 9 8 8 9 12 16 19 21 25 31 33 33 38 43 42 38 37 43 52 57 53 47 42 36 30 22 12 4 1 0 0
1 2 3 3 4 4 3 3 3 5 6 7 8 8 7 8 9 12 16 19 23 27 26 23 24 29 36 42 39 36 45 59 63 58 53 48 40 29 19 10 5 1 0
0 0 1 1 2 3 3 3 2 4 5 6 7 8 7 7 7 9 13 16 18 20 17 14 14 20 28 38 41 36 33 43 57 64 64 60 50 39 29 20 11 5 2
1 0 0 0 1 1 2 2 1 2 4 4 5 6 7 7 6 6 7 9 11 11 10 9 12 19 25 31 35 31 21 22 36 55 66 68 62 52 43 32 19 11 7
2 1 0 0 0 0 1 1 0 0 1 2 3 5 7 7 5 3 2 3 4 5 6 9 13 18 22 25 24 18 11 9 16 35 55 67 69 63 52 40 29 20 17
2 2 1 0 1 0 0 1 1 0 0 1 2 4 6 6 5 3 1 1 1 2 3 6 11 14 17 19 16 9 5 3 5 16 33 49 59 57 48 40 35 28 23
1 1 0 0 0 0 0 1 2 1 0 0 1 3 5 5 3 2 1 0 0 1 2 5 9 12 15 16 13 8 4 2 1 4 11 23 33 35 31 28 27 24 21
0 0 0 0 0 0 0 1 2 1 1 1 1 2 3 4 3 2 1 1 1 1 2 5 8 10 12 11 9 8 7 3 0 0 2 5 11 13 13 11 11 10 10
0 0 0 0 0 0 0 0 1 1 1 1 1 1 1 2 2 2 2 2 1 0 1 3 5 6 6 5 4 7 7 3 0 0 0 0 1 3 3 2 1 1 1
0 0 0 0 0 0 0 0 0 1 1 0 0 0 0 1 1 2 1 1 1 0 0 1 2 3 3 2 3 4 5 3 1 0 0 0 0 0 0 0 0 0 0
0 0 0 0 0 0 0 0 0 0 0 0 0 0 0 0 1 1 1 1 0 0 0 0 1 1 1 1 2 4 4 3 2 0 0 0 0 0 0 0 0 0 0
0 0 0 0 0 0 0 0 0 0 0 0 0 0 0 0 0 0 1 1 0 0 0 0 0 1 1 1 2 4 4 4 2 0 0 0 0 0 0 0 0 0 0
0 0 0 0 0 0 0 0 0 0 0 0 0 0 0 0 0 0 0 0 0 0 0 0 1 1 1 2 3 3 3 2 1 0 0 0 0 0 0 0 0 0 0
0 0 0 0 0 0 0 0 0 0 0 0 0 0 0 0 0 0 0 0 0 0 0 0 1 1 2 3 3 2 2 1 1 0 0 0 0 0 0 0 0 0 0
1 1 0 0 0 0 0 0 0 0 0 0 0 0 0 0 0 0 0 0 0 0 0 0 0 0 1 2 2 2 1 0 0 1 0 0 0 0 0 0 0 0 0
3 2 0 0 0 0 0 0 0 0 0 0 0 0 0 0 0 0 0 0 0 0 0 0 0 0 0 1 1 1 1 0 0 0 0 0 0 0 0 0 0 0 0
4 2 1 1 1 1 0 0 0 0 0 0 0 0 0 0 0 0 0 0 0 0 0 0 0 0 0 0 0 0 0 0 0 0 0 0 0 0 0 0 0 0 0
5 3 2 2 2 1 0 0 0 0 0 0 0 0 0 0 0 0 0 0 0 0 0 0 0 0 0 0 0 0 0 0 0 0 0 0 0 0 0 0 0 0 0
5 4 2 3 2 1 0 0 0 0 0 0 0 0 0 0 0 0 0 0 0 0 0 0 0 0 0 0 0 0 0 0 0 0 0 0 0 0 0 0 0 0 0
Wind_Speed
1 1 1 1 2 2 2 2 3 3 4 4 4 4 4 4 2 2 5 16 18 17 17 17 16 16 16 15 14 14 14 14 13 12 12 12 13 12 11 11 10 10 9
1 1 2 2 2 2 1 2 3 3 4 4 4 4 4 4 3 3 5 10 15 16 17 17 18 17 17 17 16 15 15 15 13 13 13 12 13 12 12 11 11 11 10
2 2 2 2 2 2 2 2 3 2 4 5 5 5 5 6 5 4 4 5 8 14 17 17 18 18 18 19 18 17 16 15 15 14 14 13 13 13 13 12 12 11 11
2 2 2 1 1 2 2 2 2 3 3 4 4 5 5 5 6 6 5 5 5 7 12 18 18 18 19 19 20 19 18 17 16 16 16 15 14 14 13 13 13 12 11
2 2 2 2 2 2 2 3 1 2 3 4 4 5 5 5 6 7 7 7 6 6 6 13 18 18 19 20 20 21 20 19 18 18 18 17 16 15 15 14 14 13 13
3 3 3 2 2 2 1 2 2 2 3 4 6 6 4 5 5 6 7 7 7 8 8 9 10 13 19 20 20 21 22 22 20 20 20 19 19 17 16 15 15 14 14
3 3 3 3 2 2 2 2 2 3 3 3 3 4 5 6 6 6 6 6 7 8 8 8 7 8 10 19 20 21 23 23 23 22 21 20 20 19 18 17 16 15 15
3 3 3 3 3 3 3 3 2 2 3 2 2 2 3 3 5 7 6 7 7 6 8 10 8 9 8 8 14 22 23 23 24 24 22 21 21 20 19 19 17 16 16
3 3 3 3 3 4 3 3 3 3 3 3 2 2 2 2 2 4 7 7 6 6 6 7 10 11 11 8 10 19 23 22 23 25 24 23 21 21 20 20 19 18 17
3 2 2 3 3 4 4 4 3 3 4 4 3 3 3 2 2 3 2 4 6 6 6 7 9 9 10 8 9 15 23 23 23 24 24 24 23 22 21 21 22 21 19
3 2 1 2 3 3 4 4 4 4 3 4 3 3 3 3 4 3 4 3 2 3 5 6 5 6 8 8 7 12 19 22 23 23 23 24 24 23 23 23 23 23 22
2 2 3 3 3 3 4 4 4 4 4 4 4 4 3 3 3 3 4 3 3 3 3 3 4 4 6 8 12 16 16 19 21 22 22 23 23 23 23 24 24 24 23
3 4 5 4 4 4 5 4 4 5 5 5 4 4 4 4 3 3 3 4 4 3 3 3 3 4 6 5 7 14 15 18 20 21 22 22 22 22 23 23 24 23 23
4 4 4 4 4 5 6 4 4 5 4 4 6 5 4 4 4 3 3 3 4 3 3 4 2 3 3 3 6 10 10 18 19 20 21 21 22 22 22 22 21 21 21
5 5 5 5 5 5 5 5 4 5 5 5 5 5 4 4 3 3 3 3 3 4 4 3 2 2 2 2 4 5 6 12 17 18 19 20 21 21 21 21 21 20 20
5 5 5 5 5 5 5 5 5 5 5 5 5 5 5 4 3 3 3 3 3 4 5 3 3 3 3 4 4 4 6 9 14 16 18 19 20 21 21 21 21 20 20
5 5 6 6 6 6 5 5 6 6 6 6 6 6 6 5 4 4 3 3 4 4 5 4 3 3 3 4 3 3 4 5 7 14 16 18 19 20 20 20 20 20 19
5 6 6 6 6 6 5 5 6 7 6 6 6 6 6 6 5 4 4 4 4 4 5 5 4 4 5 4 4 4 5 6 6 11 16 17 18 18 19 19 19 19 19
5 6 6 6 6 6 6 6 6 6 6 6 6 6 6 6 5 4 5 5 4 5 4 5 5 4 4 3 3 4 5 4 6 7 12 15 16 17 18 18 18 18 17
6 6 6 6 6 6 6 5 5 5 6 6 6 6 6 6 5 5 5 5 5 5 5 5 5 4 4 3 2 3 3 3 4 5 5 7 11 14 15 16 17 17 17
7 6 6 6 6 6 4 5 6 7 6 6 6 6 7 7 7 6 6 4 4 4 4 4 4 4 3 2 2 2 3 2 2 3 3 4 6 6 8 12 14 16 16
5 5 6 6 7 6 3 3 4 7 7 7 7 7 7 8 9 10 10 8 7 6 5 4 4 4 4 3 2 2 2 2 2 3 4 4 5 6 6 6 10 14 15
5 5 6 6 5 5 4 4 5 6 8 8 8 7 8 8 5 5 7 10 10 11 9 6 6 6 5 4 3 3 3 3 3 2 3 3 4 4 4 5 11 12 14
5 5 6 6 5 5 4 5 6 7 8 8 8 8 7 6 6 5 5 5 5 6 8 8 6 6 5 4 4 4 4 3 2 2 3 3 3 3 3 3 9 11 12
5 6 6 5 5 4 4 5 5 6 6 7 7 7 6 4 4 5 5 5 5 5 6 7 7 6 6 6 5 3 3 3 2 2 2 2 3 3 2 2 4 8 10
6 6 6 5 5 4 3 5 5 5 6 6 5 4 4 3 3 4 4 5 5 4 4 4 4 5 5 6 7 6 4 4 3 2 3 3 3 3 2 2 3 4 5
Wind_Direction
264 270 268 271 265 245 220 218 230 233 229 232 240 233 244 248 256 173 168 176 175 174 176 182 187 191 192 190 189 187 186 185 181 178 178 175 172 170 166 163 159 156 153
339 304 273 262 271 266 252 230 226 223 228 224 227 239 247 255 241 204 174 183 183 182 182 186 192 196 197 196 195 194 192 190 186 183 183 182 178 176 175 172 168 165 162
345 318 287 275 279 280 265 253 249 233 230 224 220 225 226 237 241 234 205 181 189 197 193 193 195 198 200 199 200 199 197 194 190 188 187 186 184 180 179 178 176 173 171
327 304 286 285 292 279 267 258 246 245 249 238 226 225 224 222 226 229 231 217 198 201 204 203 200 200 202 202 203 203 201 198 194 192 191 189 188 186 184 183 182 179 178
332 313 297 295 278 259 250 264 256 260 264 260 251 233 228 226 216 223 222 224 215 204 199 205 205 203 205 206 206 205 204 202 199 197 196 195 193 191 189 188 186 185 184
1 339 299 331 309 280 271 267 274 259 255 254 259 257 238 230 219 221 224 222 215 212 211 210 201 208 210 208 207 208 206 205 203 201 200 199 197 194 192 192 191 189 189
8 330 333 336 325 316 307 292 281 274 256 242 250 264 249 232 221 218 221 225 219 214 212 211 198 199 207 212 210 208 208 207 205 204 203 201 199 197 195 195 195 193 193
353 334 12 335 336 324 300 294 293 284 284 261 246 268 271 249 234 228 216 219 222 214 215 217 210 206 207 200 209 210 210 209 207 205 204 203 201 198 197 198 198 197 196
330 334 334 330 333 318 315 322 294 292 291 288 240 236 266 268 289 238 222 218 214 212 215 217 216 211 210 207 201 208 210 210 207 207 205 204 202 200 199 200 200 200 200
308 309 321 323 325 317 321 311 345 327 305 295 285 243 245 267 276 292 257 229 218 214 216 227 226 215 210 208 210 202 205 208 208 207 207 206 204 202 201 201 203 203 203
288 302 308 325 325 307 322 333 331 320 309 300 303 297 280 266 246 255 278 276 253 233 220 222 229 223 213 209 215 216 205 205 206 208 207 206 206 204 203 204 207 208 208
326 5 2 16 333 326 329 317 313 299 292 296 300 295 287 271 263 254 265 272 263 250 244 233 227 229 220 210 215 218 205 206 207 207 206 205 205 205 206 206 209 211 211
341 21 10 348 331 324 307 297 294 284 283 282 280 276 279 273 273 272 272 277 281 279 260 247 228 230 227 214 214 212 204 206 208 207 206 204 204 204 205 206 209 211 213
330 343 338 326 314 307 305 312 301 287 279 277 274 271 273 277 272 265 263 269 277 278 263 254 245 233 227 212 214 212 205 204 205 206 206 205 204 203 203 204 206 208 211
322 346 335 320 312 306 302 299 289 288 288 282 279 275 260 265 262 258 257 253 254 268 270 268 260 251 249 225 205 215 217 205 204 205 207 207 205 202 201 202 204 205 207
316 314 309 308 305 302 295 292 290 286 288 278 270 269 271 268 271 266 257 252 245 254 266 275 277 282 279 265 216 218 228 216 208 207 208 209 208 205 202 202 202 203 204
315 307 304 302 298 293 291 288 282 281 280 278 279 276 271 265 258 269 268 257 249 246 258 267 270 277 270 274 268 241 229 219 213 210 210 210 207 204 202 201 201 202 203
311 309 307 304 301 300 300 296 291 292 291 289 282 279 278 275 261 255 261 265 259 252 253 263 266 270 265 260 260 252 238 229 218 211 207 208 206 204 202 201 201 202 203
306 306 305 305 305 303 299 293 289 290 291 290 290 285 279 274 268 256 255 257 261 261 252 256 260 257 259 254 258 251 236 230 233 216 203 204 204 202 201 200 199 200 201
305 302 307 306 304 303 301 308 310 302 295 293 289 283 276 269 265 259 254 247 252 258 259 260 258 256 256 249 240 247 248 226 228 223 204 197 196 198 199 197 196 195 196
309 315 313 307 305 299 323 349 327 309 312 305 294 286 280 272 262 256 260 253 257 256 258 260 259 257 256 251 234 240 250 240 221 204 187 186 178 188 197 196 196 194 192
308 308 303 305 306 312 355 341 321 313 303 296 293 290 284 266 254 242 238 239 239 243 252 260 264 258 256 255 255 246 246 240 236 194 183 192 180 185 187 190 192 190 190
313 307 302 301 300 301 291 288 289 294 289 285 283 281 282 283 282 261 237 231 234 237 234 244 256 257 256 248 244 252 245 236 242 208 179 193 181 177 173 180 175 180 185
304 298 294 293 292 295 275 269 279 279 280 279 275 270 269 276 280 279 273 258 246 240 232 232 240 246 250 249 235 235 241 247 242 218 183 179 171 166 142 141 161 169 176
302 298 294 294 294 286 258 259 272 288 284 287 285 281 277 270 271 268 265 264 263 260 255 244 231 228 228 239 239 233 228 216 219 204 189 171 157 144 134 129 142 157 165
298 300 301 299 295 295 255 247 256 284 293 299 296 286 281 274 269 266 264 265 262 265 272 258 247 238 230 231 231 223 220 217 203 203 182 165 154 142 139 127 139 152 152